Back to catalog

STARLINK-5522

AliveCommunicationsVLEO
NORAD 56498·PAYLOAD·🇺🇸 United States

Launched May 10, 2023 from Vandenberg Space Force Base

Loading…

Next Passes (next 24 hours)

TLE

FreshSource: CelesTrak SupGP

Epoch: Sep 14, 2026, 14:09 UTC

1 56498C 23064BC  26257.59006944 -.00018470  00000+0 -15476-2 0  2579
2 56498  70.0020 348.1216 0003470 271.0111 290.2540 14.98346794    13

Track STARLINK-5522 in real time with AllMySat

Download on the App Store